TimeEST,TemperatureF,Dew PointF,Humidity,Sea Level PressureIn,VisibilityMPH,Wind Direction,Wind SpeedMPH,Gust SpeedMPH,PrecipitationIn,Events,Conditions,WindDirDegrees,DateUTC
12:53 AM,26.1,23.0,88,30.44,10.0,Calm,Calm,-,N/A,,Overcast,0,2012-12-13 05:53:00
1:53 AM,26.1,23.0,88,30.45,10.0,Calm,Calm,-,N/A,,Overcast,0,2012-12-13 06:53:00
2:53 AM,24.1,21.0,88,30.45,8.0,Calm,Calm,-,N/A,,Partly Cloudy,0,2012-12-13 07:53:00
3:53 AM,21.9,19.9,92,30.45,7.0,Calm,Calm,-,N/A,,Clear,0,2012-12-13 08:53:00
4:53 AM,19.0,18.0,96,30.45,8.0,Calm,Calm,-,N/A,,Clear,0,2012-12-13 09:53:00
5:53 AM,19.0,17.1,92,30.47,8.0,Calm,Calm,-,N/A,,Clear,0,2012-12-13 10:53:00
6:53 AM,19.9,16.0,85,30.49,7.0,Calm,Calm,-,N/A,,Clear,0,2012-12-13 11:53:00
7:53 AM,19.9,17.1,89,30.50,8.0,Calm,Calm,-,N/A,,Overcast,0,2012-12-13 12:53:00
8:53 AM,28.0,24.1,85,30.49,6.0,Calm,Calm,-,N/A,,Partly Cloudy,0,2012-12-13 13:53:00
9:53 AM,30.9,27.0,85,30.48,7.0,Calm,Calm,-,N/A,,Clear,0,2012-12-13 14:53:00
10:53 AM,34.0,25.0,70,30.46,10.0,Calm,Calm,-,N/A,,Clear,0,2012-12-13 15:53:00
11:53 AM,37.0,24.1,59,30.43,10.0,Calm,Calm,-,N/A,,Clear,0,2012-12-13 16:53:00
12:53 PM,37.9,24.1,57,30.42,9.0,South,4.6,-,N/A,,Clear,190,2012-12-13 17:53:00
1:53 PM,39.0,23.0,53,30.40,10.0,Variable,3.5,-,N/A,,Clear,0,2012-12-13 18:53:00
2:53 PM,39.0,23.0,53,30.39,10.0,South,5.8,-,N/A,,Clear,170,2012-12-13 19:53:00
3:53 PM,36.0,23.0,59,30.39,10.0,South,5.8,-,N/A,,Clear,170,2012-12-13 20:53:00
4:53 PM,30.0,21.9,72,30.38,10.0,Calm,Calm,-,N/A,,Clear,0,2012-12-13 21:53:00
7:53 PM,21.2,19.4,93,30.33,8.0,Calm,Calm,-,N/A,,Clear,0,2012-12-14 00:53:00
8:53 PM,21.9,19.0,89,30.35,9.0,Calm,Calm,-,N/A,,Clear,0,2012-12-14 01:53:00
9:53 PM,21.9,19.0,89,30.33,8.0,Calm,Calm,-,N/A,,Clear,0,2012-12-14 02:53:00
10:53 PM,21.9,19.0,89,30.31,8.0,Calm,Calm,-,N/A,,Clear,0,2012-12-14 03:53:00
11:53 PM,21.9,19.0,89,30.30,9.0,Calm,Calm,-,N/A,,Clear,0,2012-12-14 04:53:00